Weather History for KABI - November, 2013

Change the Weather History Date:

Saturday, November 30, 2013

  Actual Average Record
Temperature  
Mean Temperature 56 °F 49 °F  
Max Temperature 68 °F 60 °F 81 °F (1950)
Min Temperature 44 °F 37 °F 17 °F (1979)
Degree Days  
Heating Degree Days 9 16  
Month to date heating degree days 393 329  
Since 1 July heating degree days 472 433  
Cooling Degree Days 0 0  
Month to date cooling degree days 13 19  
Year to date cooling degree days 2722 2408  
Growing Degree Days 7 (Base 50)    
Moisture  
Dew Point 46 °F    
Average Humidity 69    
Maximum Humidity 89    
Minimum Humidity 49    
Precipitation  
Precipitation 0.00 in 0.03 in 0.62 in (1931)
Month to date precipitation 1.17 1.41  
Year to date precipitation 22.08 23.59  
Sea Level Pressure  
Sea Level Pressure 30.20 in    
Wind  
Wind Speed 11 mph (SSW)    
Max Wind Speed 24 mph    
Max Gust Speed 30 mph    
Visibility 10 miles    
Events      
T = Trace of Precipitation, MM = Missing Value Source: NWS Daily Summary

Daily Weather History Graph

Daily Weather History Graph

Search for Another Location

Airport or City:

Trip Planner

Search our weather history database for the weather conditions in past years. The results will help you decide how hot, cold, wet, or windy it might be!

Date:

Astronomy

Nov. 30, 2013 Rise Set
Actual Time 7:21 AM CST 5:33 PM CST
Civil Twilight 6:54 AM CST 5:59 PM CST
Nautical Twilight 6:24 AM CST 6:30 PM CST
Astronomical Twilight 5:54 AM CST 6:59 PM CST
Moon 4:41 AM CST (11/30) 3:52 PM CST (11/30)
Length of Visible Light 11h 05m
Length of Day
10h 11m
Waning Crescent, 7% of the Moon is Illuminated
Nov 30
Waning Crescent
Dec 2
New
Dec 9
First Quarter
Dec 17
Full
Dec 25
Last Quarter

Hourly Weather History & Observations

Time (CST) Temp. Windchill Dew Point Humidity Pressure Visibility Wind Dir Wind Speed Gust Speed Precip Events Conditions
12:52 AM 50.0 °F - 42.1 °F 74% 30.26 in 10.0 mi South 10.4 mph - N/A   Clear
1:52 AM 48.0 °F - 41.0 °F 77% 30.25 in 10.0 mi SW 6.9 mph - N/A   Clear
2:52 AM 46.0 °F 44.8 °F 41.0 °F 83% 30.25 in 10.0 mi WSW 3.5 mph - N/A   Clear
3:52 AM 45.0 °F 41.8 °F 41.0 °F 86% 30.25 in 10.0 mi SSW 5.8 mph - N/A   Clear
4:52 AM 46.0 °F 43.1 °F 41.0 °F 83% 30.25 in 10.0 mi South 5.8 mph - N/A   Clear
5:52 AM 46.0 °F 41.0 °F 43.0 °F 89% 30.25 in 10.0 mi SSW 10.4 mph - N/A   Scattered Clouds
5:59 AM 46.4 °F 40.7 °F 42.8 °F 87% 30.26 in 10.0 mi SSW 12.7 mph - N/A   Mostly Cloudy
6:26 AM 48.2 °F - 44.6 °F 87% 30.27 in 10.0 mi SSW 12.7 mph - N/A   Overcast
6:52 AM 48.9 °F - 45.0 °F 86% 30.26 in 10.0 mi SSW 11.5 mph - N/A   Overcast
7:52 AM 48.9 °F - 45.0 °F 86% 30.26 in 10.0 mi SSW 15.0 mph - N/A   Mostly Cloudy
8:03 AM 50.0 °F - 44.6 °F 82% 30.27 in 10.0 mi SSW 13.8 mph - N/A   Scattered Clouds
8:52 AM 52.0 °F - 46.9 °F 83% 30.27 in 10.0 mi SW 12.7 mph - N/A   Scattered Clouds
9:23 AM 53.6 °F - 46.4 °F 77% 30.30 in 10.0 mi SW 13.8 mph - N/A   Mostly Cloudy
9:52 AM 54.0 °F - 46.9 °F 77% 30.28 in 10.0 mi SSW 15.0 mph 27.6 mph N/A   Overcast
10:52 AM 55.0 °F - 46.9 °F 74% 30.26 in 10.0 mi SSW 19.6 mph 26.5 mph N/A   Overcast
11:44 AM 57.2 °F - 48.2 °F 72% 30.25 in 10.0 mi SSW 21.9 mph - N/A   Partly Cloudy
11:52 AM 59.0 °F - 48.0 °F 67% 30.22 in 10.0 mi SSW 23.0 mph - N/A   Partly Cloudy
12:52 PM 62.1 °F - 48.9 °F 62% 30.19 in 10.0 mi SSW 18.4 mph 25.3 mph N/A   Clear
1:52 PM 66.0 °F - 48.9 °F 54% 30.16 in 10.0 mi SSW 15.0 mph 21.9 mph N/A   Clear
2:52 PM 68.0 °F - 48.0 °F 49% 30.12 in 10.0 mi SSW 12.7 mph 19.6 mph N/A   Clear
3:52 PM 66.9 °F - 48.0 °F 51% 30.10 in 10.0 mi South 12.7 mph - N/A   Clear
4:52 PM 66.0 °F - 48.0 °F 52% 30.11 in 10.0 mi SSW 9.2 mph - N/A   Clear
5:52 PM 61.0 °F - 46.9 °F 60% 30.12 in 10.0 mi South 5.8 mph - N/A   Clear
6:52 PM 57.0 °F - 46.9 °F 69% 30.13 in 10.0 mi South 6.9 mph - N/A   Clear
7:52 PM 55.0 °F - 46.9 °F 74% 30.13 in 10.0 mi South 6.9 mph - N/A   Clear
8:52 PM 55.0 °F - 46.9 °F 74% 30.13 in 10.0 mi South 8.1 mph - N/A   Clear
9:52 PM 55.9 °F - 48.9 °F 77% 30.13 in 10.0 mi SSW 12.7 mph - N/A   Clear
10:52 PM 57.0 °F - 48.9 °F 74% 30.14 in 10.0 mi SSW 10.4 mph - N/A   Clear
11:52 PM 55.9 °F - 48.9 °F 77% 30.12 in 10.0 mi SW 10.4 mph - N/A   Clear